Location: Firdgum
(53.2488°N, 5.5615°E)
Time: 07:37:04
(UTC+00:00)

Nadezhda 4 Rocket - Pass Details

Date: 08 December 2019
Orbit: 949 x 993 km, 82.9° (Epoch: 18 January)

Event Time Altitude Azimuth Distance (km) Brightness Sun altitude
Exits shadow 04:59:12 21° 336° (NNW) 2,053 5.4 -22.4°
Maximum altitude 05:03:18 53° 268° (W) 1,177 4.0 -21.8°
Drops below altitude 10° 05:09:15 10° 194° (SSW) 2,691 6.3 -20.9°
Sets 05:11:46 0° 189° (S) 3,627 7.0 -20.6°
